Location: Alpha Ridge Park
(39.3209°N, 76.9128°W)
Time: 21:08:43
(UTC-04:00)

Vanguard 2 Rocket - Pass Details

Date: 26 May 2019
Orbit: 554 x 3326 km, 32.9° (Epoch: 17 June)

Event Time Altitude Azimuth Distance (km) Brightness Sun altitude
Rises 06:43:44 0° 245° (WSW) 7,309 10.8 9.3°
Reaches altitude 10° 06:48:53 10° 243° (WSW) 6,219 10.6 10.3°
Maximum altitude 07:07:34 62° 169° (S) 2,810 9.6 13.7°
Drops below altitude 10° 07:19:24 10° 92° (E) 4,138 12.1 15.9°
Sets 07:22:06 0° 89° (E) 4,825 12.2 16.4°
